This is the latest recevied weather packets stored in our database for station/object SA7AHC. If no packets are shown the sender has not sent any weather packets the latest 10 day(s).
| Time | Temp. | Humidity | Pressure | Rain* | Wind** | Luminosity | Snow |
|---|---|---|---|---|---|---|---|
| 1777731209 | 23.33° C | 28% | 1015.6 hPa | 0 mm | - | 543 W/m² | - |
| 1777730602 | 23.33° C | 30% | 1015.9 hPa | 0 mm | - | 564 W/m² | - |
| 1777730001 | 23.33° C | 29% | 1016 hPa | 0 mm | - | 580 W/m² | - |
| 1777729398 | 23.33° C | 30% | 1016.1 hPa | 0 mm | - | 598 W/m² | - |
| 1777728803 | 23.33° C | 32% | 1016.2 hPa | 0 mm | - | 313 W/m² | - |
| 1777727594 | 23.33° C | 32% | 1016.5 hPa | 0 mm | - | 345 W/m² | - |
| 1777726991 | 22.78° C | 30% | 1016.7 hPa | 0 mm | - | 659 W/m² | - |
| 1777726394 | 22.78° C | 31% | 1016.7 hPa | 0 mm | - | 362 W/m² | - |
| 1777725789 | 22.78° C | 31% | 1017 hPa | 0 mm | - | 682 W/m² | - |
| 1777725187 | 23.33° C | 32% | 1017.2 hPa | 0 mm | - | 689 W/m² | - |
| 1777724589 | 22.78° C | 34% | 1017.2 hPa | 0 mm | - | 701 W/m² | - |
| 1777723987 | 22.78° C | 32% | 1017.3 hPa | 0 mm | - | 714 W/m² | - |
| 1777723390 | 23.33° C | 32% | 1017.8 hPa | 0 mm | - | 406 W/m² | - |
| 1777722789 | 22.78° C | 33% | 1017.8 hPa | 0 mm | - | 654 W/m² | - |
| 1777722186 | 22.78° C | 32% | 1017.9 hPa | 0 mm | - | 457 W/m² | - |
| 1777721589 | 22.22° C | 35% | 1018.1 hPa | 0 mm | - | 740 W/m² | - |
| 1777720987 | 21.67° C | 35% | 1018.1 hPa | 0 mm | - | 747 W/m² | - |
| 1777720390 | 21.67° C | 37% | 1018.3 hPa | 0 mm | - | 747 W/m² | - |
| 1777719787 | 21.67° C | 36% | 1018.5 hPa | 0 mm | - | 745 W/m² | - |
| 1777719186 | 21.67° C | 35% | 1018.5 hPa | 0 mm | - | 749 W/m² | - |
| 1777718588 | 21.11° C | 36% | 1018.8 hPa | 0 mm | - | 745 W/m² | - |
| 1777717984 | 21.11° C | 35% | 1019.1 hPa | 0 mm | - | 745 W/m² | - |
| 1777717384 | 21.11° C | 36% | 1019.1 hPa | 0 mm | - | 738 W/m² | - |
| 1777716784 | 20.56° C | 37% | 1019.2 hPa | 0 mm | - | 735 W/m² | - |
| 1777716185 | 20.56° C | 40% | 1019.6 hPa | 0 mm | - | 729 W/m² | - |
* Rain latest hour (hover to see other rain measurements)
** Current wind speed in m/s (hover to see current wind gust speed)